Weather History for Fort Lewis, WA

Change the Weather History Date:

Saturday, May 3, 2014

  Actual Average Record
Temperature  
Mean Temperature 51 °F -  
Max Temperature 59 °F 60 °F 73 °F (2004)
Min Temperature 44 °F 40 °F 30 °F (2006)
Degree Days  
Heating Degree Days 14    
Growing Degree Days 1 (Base 50)    
Moisture  
Dew Point 49 °F    
Average Humidity 88    
Maximum Humidity 100    
Minimum Humidity 58    
Precipitation  
Precipitation 0.69 in - - ()
Sea Level Pressure  
Sea Level Pressure 29.83 in    
Wind  
Wind Speed 8 mph (South)    
Max Wind Speed 16 mph    
Max Gust Speed 22 mph    
Visibility 8 miles    
Events Rain    
Averages and records for this station are not official NWS values.
T = Trace of Precipitation, MM = Missing Value Source: NWS Daily Summary

Daily Weather History Graph

Daily Weather History Graph

Search for Another Location

Airport:

Trip Planner

Search our weather history database for the weather conditions in past years. The results will help you decide how hot, cold, wet, or windy it might be!

Date:

Astronomy

May. 03, 2014 Rise Set
Actual Time 5:51 AM PDT 8:23 PM PDT
Civil Twilight 5:17 AM PDT 8:58 PM PDT
Nautical Twilight 4:33 AM PDT 9:41 PM PDT
Astronomical Twilight 3:44 AM PDT 10:31 PM PDT
Moon 9:22 AM PDT (5/3) No Moon Set
Length of Visible Light 15h 41m
Length of Day
14h 32m
Waxing Crescent, 20% of the Moon is Illuminated
May 3
Waxing Crescent
May 6
First Quarter
May 14
Full
May 21
Last Quarter
May 28
New

Hourly Weather History & Observations

Time (PDT) Temp. Windchill Dew Point Humidity Pressure Visibility Wind Dir Wind Speed Gust Speed Precip Events Conditions
12:01 AM 51.8 °F - 44.6 °F 76% 29.95 in 10.0 mi SSW 10.4 mph - N/A   Clear
12:20 AM 51.8 °F - 44.6 °F 76% 29.96 in 10.0 mi South 8.1 mph - N/A   Drizzle
12:40 AM 51.8 °F - 44.6 °F 76% 29.96 in 10.0 mi SSW 8.1 mph - N/A   Drizzle
12:58 AM 52.5 °F - 45.0 °F 75% 29.97 in 10.0 mi South 8.1 mph - 0.00 in   Drizzle
1:53 AM 51.8 °F - 44.6 °F 76% 29.95 in 10.0 mi SSE 5.8 mph - N/A   Drizzle
1:58 AM 51.1 °F - 44.2 °F 77% 29.96 in 10.0 mi SSE 6.9 mph - 0.00 in   Drizzle
2:42 AM 46.4 °F 43.5 °F 42.8 °F 87% 29.94 in 10.0 mi SSE 5.8 mph - N/A   Clear
2:52 AM 46.4 °F 42.4 °F 44.6 °F 93% 29.94 in 10.0 mi SE 8.1 mph - N/A   Drizzle
2:58 AM 47.1 °F - 44.2 °F 90% 29.96 in 10.0 mi SE 9.2 mph - 0.00 in   Drizzle
3:58 AM 49.6 °F - 47.3 °F 92% 29.94 in 10.0 mi SSE 6.9 mph - 0.00 in   Drizzle
4:58 AM 46.9 °F - 45.5 °F 95% 29.92 in 10.0 mi SE 6.9 mph - 0.00 in   Drizzle
5:11 AM 46.4 °F 42.9 °F 44.6 °F 93% 29.91 in 10.0 mi SE 6.9 mph - N/A   Clear
5:30 AM 46.4 °F 43.5 °F 44.6 °F 93% 29.91 in 10.0 mi SE 5.8 mph - N/A   Drizzle
5:58 AM 44.4 °F 41.2 °F 44.1 °F 99% 29.91 in 10.0 mi SE 5.8 mph - 0.00 in   Drizzle
6:58 AM 48.2 °F - 46.8 °F 95% 29.91 in 10.0 mi SE 8.1 mph - 0.00 in   Drizzle
7:58 AM 50.7 °F - 46.4 °F 85% 29.91 in 10.0 mi SE 6.9 mph - 0.00 in   Drizzle
8:58 AM 55.4 °F - 45.9 °F 70% 29.89 in 10.0 mi SSE 10.4 mph - 0.00 in   Drizzle
9:58 AM 55.9 °F - 44.2 °F 65% 29.88 in 10.0 mi SSE 11.5 mph - 0.00 in   Drizzle
10:58 AM 58.5 °F - 43.5 °F 58% 29.87 in 10.0 mi South 9.2 mph 21.9 mph 0.00 in   Drizzle
11:58 AM 57.2 °F - 45.3 °F 65% 29.86 in 10.0 mi South 9.2 mph - 0.00 in Rain Light Rain
12:58 PM 56.3 °F - 45.9 °F 68% 29.86 in 10.0 mi South 12.7 mph 19.6 mph 0.00 in   Drizzle
1:37 PM 55.4 °F - 48.2 °F 77% 29.84 in 7.0 mi South 11.5 mph - N/A Rain Light Rain
1:58 PM 55.4 °F - 48.9 °F 79% 29.86 in 10.0 mi South 5.8 mph - 0.01 in   Drizzle
2:48 PM 57.2 °F - 48.2 °F 72% 29.83 in 10.0 mi SSE 12.7 mph - N/A   Drizzle
2:53 PM 55.4 °F - 48.2 °F 77% 29.83 in 10.0 mi SE 11.5 mph - N/A   Drizzle
2:58 PM 56.1 °F - 48.7 °F 76% 29.85 in 10.0 mi SSE 9.2 mph - 0.00 in   Drizzle
3:03 PM 55.4 °F - 50.0 °F 82% 29.83 in 10.0 mi SSE 10.4 mph - N/A   Drizzle
3:08 PM 55.4 °F - 48.2 °F 77% 29.83 in 10.0 mi South 10.4 mph - N/A Rain Light Rain
3:13 PM 55.4 °F - 50.0 °F 82% 29.83 in 10.0 mi SSE 8.1 mph - N/A Rain Light Rain
3:48 PM 55.4 °F - 50.0 °F 82% 29.82 in 10.0 mi SSE 8.1 mph - N/A   Drizzle
3:58 PM 55.9 °F - 50.0 °F 80% 29.83 in 10.0 mi SE 12.7 mph - 0.02 in Rain Light Rain
4:03 PM 55.4 °F - 50.0 °F 82% 29.82 in 10.0 mi SE 9.2 mph - N/A Rain Light Rain
4:18 PM 55.4 °F - 50.0 °F 82% 29.81 in 10.0 mi SSE 8.1 mph - N/A Rain Light Rain
4:23 PM 55.4 °F - 50.0 °F 82% 29.81 in 10.0 mi SE 9.2 mph - N/A   Drizzle
4:58 PM 55.6 °F - 50.4 °F 83% 29.83 in 10.0 mi South 9.2 mph - 0.00 in   Drizzle
5:03 PM 55.4 °F - 50.0 °F 82% 29.81 in 10.0 mi SW 8.1 mph - N/A   Drizzle
5:28 PM 55.4 °F - 50.0 °F 82% 29.80 in 10.0 mi South 5.8 mph - N/A   Drizzle
5:33 PM 55.4 °F - 50.0 °F 82% 29.80 in 10.0 mi SSE 4.6 mph - N/A   Drizzle
5:58 PM 54.7 °F - 51.3 °F 88% 29.81 in 10.0 mi SSE 13.8 mph - 0.01 in Rain Light Rain
6:58 PM 53.6 °F - 52.0 °F 94% 29.78 in 9.0 mi Variable 1.2 mph - 0.02 in Rain Light Rain
7:58 PM 53.1 °F - 52.0 °F 96% 29.76 in 6.0 mi Calm Calm - 0.03 in Rain Light Rain
8:33 PM 51.8 °F - 51.8 °F 100% 29.75 in 7.0 mi SSE 3.5 mph - N/A Rain Light Rain
8:42 PM 51.8 °F - 51.8 °F 100% 29.75 in 4.0 mi Calm Calm - N/A Rain Rain
8:58 PM 52.5 °F - 52.2 °F 99% 29.76 in 4.0 mi WSW 6.9 mph - 0.13 in Rain Rain
9:08 PM 51.8 °F - 51.8 °F 100% 29.75 in 4.0 mi WSW 3.5 mph - N/A Rain Light Rain
9:13 PM 51.8 °F - 51.8 °F 100% 29.75 in 5.0 mi SW 9.2 mph - N/A Rain Rain
9:18 PM 51.8 °F - 51.8 °F 100% 29.75 in 2.5 mi SW 4.6 mph - N/A Rain Heavy Rain
9:23 PM 51.8 °F - 51.8 °F 100% 29.75 in 2.5 mi South 2.3 mph - N/A Rain Rain
9:28 PM 51.8 °F - 51.8 °F 100% 29.75 in 6.0 mi SSE 1.2 mph - N/A Rain Light Rain
9:33 PM 51.8 °F - 51.8 °F 100% 29.75 in 3.0 mi SSW 2.3 mph - N/A Rain Heavy Rain
9:38 PM 51.8 °F - 51.8 °F 100% 29.75 in 2.5 mi ENE 1.2 mph - N/A Rain Rain
9:43 PM 51.8 °F - 51.8 °F 100% 29.74 in 3.0 mi West 1.2 mph - N/A Rain Rain
9:53 PM 51.8 °F - 51.8 °F 100% 29.74 in 4.0 mi WNW 3.5 mph - N/A Rain Rain
9:58 PM 51.6 °F - 51.4 °F 99% 29.75 in 5.0 mi Calm Calm - 0.23 in Rain Rain
10:03 PM 51.8 °F - 51.8 °F 100% 29.74 in 4.0 mi WSW 2.3 mph - N/A Rain Rain
10:08 PM 51.8 °F - 51.8 °F 100% 29.75 in 2.5 mi SW 10.4 mph - N/A Rain Rain
10:13 PM 51.8 °F - 51.8 °F 100% 29.75 in 2.0 mi SW 12.7 mph 17.3 mph N/A Rain Heavy Rain
10:18 PM 51.8 °F - 50.0 °F 94% 29.76 in 2.0 mi SSW 15.0 mph 20.7 mph N/A Rain Heavy Rain
10:23 PM 50.0 °F - 50.0 °F 100% 29.77 in 3.0 mi South 11.5 mph 20.7 mph N/A Rain Light Rain
10:28 PM 50.0 °F - 50.0 °F 100% 29.77 in 5.0 mi South 16.1 mph 21.9 mph N/A Rain Rain
10:33 PM 50.0 °F - 48.2 °F 94% 29.77 in 7.0 mi South 12.7 mph 21.9 mph N/A Rain Light Rain
10:43 PM 50.0 °F - 48.2 °F 94% 29.75 in 7.0 mi South 6.9 mph - N/A Rain Light Rain
10:58 PM 49.3 °F - 48.4 °F 97% 29.76 in 10.0 mi SE 8.1 mph - 0.24 in Rain Light Rain
11:58 PM 48.2 °F - 48.0 °F 99% 29.76 in 10.0 mi ESE 4.6 mph - 0.00 in   Drizzle